| time (UTC) | temp F | wind direction | speed MPH | gust MPH | rain 1hr in | rain 24hr in | rain mn in | humidity % | barometer mb |
| 20260906020525 | 58 | 343 | 6.0 | 13.0 | 0.00 | 0.00 | 0.00 | 65 | 1017.9 |
| 20260906015525 | 57 | 331 | 7.0 | 14.0 | 0.00 | 0.00 | 0.00 | 64 | 1017.9 |
| 20260906014530 | 57 | 321 | 6.0 | 13.0 | 0.00 | 0.00 | 0.00 | 66 | 1017.9 |
| 20260906013534 | 57 | 340 | 7.0 | 15.0 | 0.00 | 0.00 | 0.00 | 64 | 1018.0 |
| 20260906012526 | 57 | 341 | 5.0 | 13.0 | 0.00 | 0.00 | 0.00 | 64 | 1017.8 |
| 20260906011524 | 57 | 323 | 6.0 | 11.0 | 0.00 | 0.00 | 0.00 | 64 | 1017.8 |
| 20260906010537 | 56 | 344 | 7.0 | 13.0 | 0.00 | 0.00 | 0.00 | 65 | 1017.9 |
| 20260906005543 | 57 | 342 | 5.0 | 12.0 | 0.00 | 0.00 | 0.00 | 65 | 1017.7 |
| 20260906004522 | 56 | 336 | 4.0 | 9.0 | 0.00 | 0.00 | 0.00 | 65 | 1017.6 |
| 20260906003529 | 57 | 268 | 2.0 | 6.0 | 0.00 | 0.00 | 0.00 | 57 | 1017.5 |
| 20260906002534 | 57 | 236 | 5.0 | 9.0 | 0.00 | 0.00 | 0.00 | 58 | 1017.4 |
| 20260906001527 | 56 | 226 | 4.0 | 6.0 | 0.00 | 0.00 | 0.00 | 59 | 1017.4 |
| 20260906000541 | 55 | 236 | 4.0 | 7.0 | 0.00 | 0.00 | 0.00 | 60 | 1017.5 |
| 20260905235533 | 55 | 292 | 5.0 | 9.0 | 0.00 | 0.00 | 0.00 | 62 | 1017.3 |
| 20260905234524 | 54 | 264 | 5.0 | 10.0 | 0.00 | 0.00 | 0.00 | 63 | 1017.4 |
| 20260905233524 | 54 | 244 | 5.0 | 11.0 | 0.00 | 0.00 | 0.00 | 63 | 1017.2 |
| 20260905232530 | 54 | 238 | 5.0 | 8.0 | 0.00 | 0.00 | 0.00 | 64 | 1017.1 |
| 20260905231517 | 53 | 250 | 5.0 | 11.0 | 0.00 | 0.00 | 0.00 | 65 | 1017.1 |
| 20260905230524 | 53 | 266 | 6.0 | 10.0 | 0.00 | 0.00 | 0.00 | 66 | 1017.1 |
| 20260905225530 | 53 | 263 | 5.0 | 8.0 | 0.00 | 0.00 | 0.00 | 65 | 1017.1 |
| 20260905224517 | 52 | 299 | 5.0 | 9.0 | 0.00 | 0.00 | 0.00 | 67 | 1016.9 |
| 20260905223522 | 52 | 286 | 6.0 | 11.0 | 0.00 | 0.00 | 0.00 | 69 | 1016.9 |
| 20260905222535 | 51 | 281 | 6.0 | 14.0 | 0.00 | 0.00 | 0.00 | 70 | 1016.9 |
| 20260905221533 | 51 | 310 | 6.0 | 11.0 | 0.00 | 0.00 | 0.00 | 70 | 1016.6 |
| 20260905220519 | 51 | 297 | 5.0 | 10.0 | 0.00 | 0.00 | 0.00 | 71 | 1016.4 |
| 20260905215525 | 50 | 279 | 7.0 | 11.0 | 0.00 | 0.00 | 0.00 | 72 | 1016.3 |
| 20260905214531 | 50 | 275 | 5.0 | 8.0 | 0.00 | 0.00 | 0.00 | 74 | 1016.0 |
| 20260905213517 | 49 | 283 | 6.0 | 14.0 | 0.00 | 0.00 | 0.00 | 74 | 1015.9 |
| 20260905212523 | 49 | 282 | 7.0 | 12.0 | 0.00 | 0.00 | 0.00 | 74 | 1015.7 |
| 20260905211531 | 49 | 269 | 6.0 | 10.0 | 0.00 | 0.00 | 0.00 | 73 | 1015.6 |
| 20260905210535 | 49 | 285 | 4.0 | 8.0 | 0.00 | 0.00 | 0.00 | 73 | 1015.5 |
| 20260905205521 | 48 | 275 | 4.0 | 8.0 | 0.00 | 0.00 | 0.00 | 75 | 1014.8 |
| 20260905204527 | 47 | 274 | 5.0 | 8.0 | 0.00 | 0.00 | 0.00 | 77 | 1014.7 |
| 20260905203534 | 47 | 319 | 2.0 | 4.0 | 0.00 | 0.00 | 0.00 | 79 | 1015.1 |
| 20260905202527 | 47 | 10 | 3.0 | 7.0 | 0.00 | 0.00 | 0.00 | 78 | 1014.9 |
| 20260905201533 | 48 | 354 | 4.0 | 6.0 | 0.00 | 0.00 | 0.00 | 75 | 1014.6 |
| 20260905200532 | 48 | 79 | 2.0 | 5.0 | 0.00 | 0.00 | 0.00 | 75 | 1014.5 |
| 20260905195518 | 47 | 62 | 2.0 | 3.0 | 0.00 | 0.00 | 0.00 | 77 | 1014.5 |
| 20260905194524 | 48 | 171 | 2.0 | 6.0 | 0.00 | 0.00 | 0.00 | 73 | 1014.2 |
| 20260905193531 | 49 | 266 | 2.0 | 5.0 | 0.00 | 0.00 | 0.00 | 72 | 1014.1 |
| 20260905192517 | 49 | 252 | 3.0 | 5.0 | 0.00 | 0.00 | 0.00 | 73 | 1014.0 |
| 20260905191525 | 49 | 272 | 5.0 | 9.0 | 0.00 | 0.00 | 0.00 | 70 | 1013.7 |
| 20260905190545 | 49 | 270 | 6.0 | 10.0 | 0.00 | 0.00 | 0.00 | 71 | 1013.5 |
| 20260905185538 | 49 | 269 | 5.0 | 8.0 | 0.00 | 0.00 | 0.00 | 71 | 1013.6 |
| 20260905184523 | 49 | 309 | 5.0 | 10.0 | 0.00 | 0.00 | 0.00 | 71 | 1013.4 |
| 20260905183537 | 49 | 280 | 4.0 | 8.0 | 0.00 | 0.00 | 0.00 | 72 | 1013.2 |
| 20260905182517 | 48 | 234 | 5.0 | 10.0 | 0.00 | 0.00 | 0.00 | 75 | 1013.1 |
| 20260905181525 | 48 | 278 | 3.0 | 7.0 | 0.00 | 0.00 | 0.00 | 76 | 1013.0 |
| 20260905180534 | 49 | 303 | 4.0 | 8.0 | 0.00 | 0.00 | 0.00 | 75 | 1013.0 |
| 20260905175522 | 49 | 237 | 5.0 | 7.0 | 0.00 | 0.00 | 0.00 | 72 | 1012.7 |
| 20260905174531 | 49 | 277 | 3.0 | 7.0 | 0.00 | 0.00 | 0.00 | 71 | 1012.7 |
| 20260905173519 | 49 | 223 | 4.0 | 9.0 | 0.00 | 0.00 | 0.00 | 70 | 1012.6 |
| 20260905172527 | 49 | 243 | 3.0 | 8.0 | 0.00 | 0.00 | 0.00 | 71 | 1012.4 |
| 20260905171536 | 49 | 251 | 6.0 | 12.0 | 0.00 | 0.00 | 0.00 | 71 | 1012.1 |
| 20260905170525 | 49 | 263 | 10.0 | 17.0 | 0.00 | 0.00 | 0.00 | 71 | 1011.6 |
| 20260905165533 | 49 | 265 | 9.0 | 15.0 | 0.00 | 0.00 | 0.00 | 73 | 1011.2 |
| 20260905164521 | 49 | 278 | 10.0 | 21.0 | 0.00 | 0.00 | 0.00 | 73 | 1011.1 |
| 20260905163537 | 49 | 267 | 8.0 | 14.0 | 0.00 | 0.00 | 0.00 | 75 | 1011.3 |
| 20260905162517 | 49 | 293 | 6.0 | 13.0 | 0.00 | 0.00 | 0.00 | 74 | 1011.6 |
| 20260905161523 | 49 | 278 | 6.0 | 11.0 | 0.00 | 0.00 | 0.00 | 74 | 1012.0 |
| 20260905160530 | 49 | 290 | 7.0 | 12.0 | 0.00 | 0.00 | 0.00 | 74 | 1011.9 |
| 20260905155517 | 49 | 277 | 5.0 | 9.0 | 0.00 | 0.00 | 0.00 | 72 | 1012.0 |
| 20260905154523 | 49 | 274 | 7.0 | 15.0 | 0.00 | 0.00 | 0.00 | 71 | 1011.6 |
| 20260905153529 | 49 | 282 | 8.0 | 17.0 | 0.00 | 0.00 | 0.00 | 71 | 1011.4 |
| 20260905152535 | 50 | 272 | 7.0 | 13.0 | 0.00 | 0.00 | 0.00 | 71 | 1011.8 |
| 20260905151521 | 50 | 258 | 8.0 | 16.0 | 0.00 | 0.00 | 0.00 | 72 | 1011.8 |
| 20260905150528 | 50 | 254 | 8.0 | 17.0 | 0.00 | 0.00 | 0.00 | 73 | 1011.8 |
| 20260905145516 | 50 | 254 | 8.0 | 14.0 | 0.00 | 0.00 | 0.00 | 71 | 1011.6 |
| 20260905144525 | 50 | 254 | 8.0 | 15.0 | 0.00 | 0.00 | 0.00 | 70 | 1011.7 |
| 20260905143533 | 50 | 254 | 6.0 | 11.0 | 0.00 | 0.00 | 0.00 | 71 | 1011.5 |
| 20260905142519 | 50 | 259 | 8.0 | 15.0 | 0.00 | 0.00 | 0.00 | 72 | 1011.3 |
| 20260905141524 | 50 | 257 | 10.0 | 18.0 | 0.00 | 0.00 | 0.00 | 72 | 1011.4 |
| 20260905140531 | 51 | 259 | 8.0 | 16.0 | 0.00 | 0.00 | 0.00 | 70 | 1011.4 |
| 20260905135536 | 51 | 273 | 6.0 | 13.0 | 0.00 | 0.00 | 0.00 | 70 | 1011.1 |
| 20260905134521 | 51 | 256 | 5.0 | 13.0 | 0.00 | 0.00 | 0.00 | 71 | 1011.2 |
| 20260905133530 | 50 | 262 | 6.0 | 10.0 | 0.00 | 0.00 | 0.00 | 72 | 1011.4 |
| 20260905132544 | 50 | 248 | 6.0 | 11.0 | 0.00 | 0.00 | 0.00 | 74 | 1011.3 |
| 20260905131522 | 50 | 248 | 6.0 | 12.0 | 0.00 | 0.00 | 0.00 | 73 | 1011.2 |
| 20260905130528 | 50 | 249 | 5.0 | 8.0 | 0.00 | 0.00 | 0.00 | 75 | 1011.0 |
| 20260905125535 | 50 | 254 | 5.0 | 9.0 | 0.00 | 0.00 | 0.00 | 80 | 1011.4 |
| 20260905124522 | 50 | 248 | 6.0 | 11.0 | 0.00 | 0.00 | 0.00 | 82 | 1011.5 |
| 20260905123529 | 52 | 254 | 10.0 | 20.0 | 0.00 | 0.00 | 0.00 | 75 | 1011.2 |
| 20260905122536 | 53 | 257 | 7.0 | 13.0 | 0.00 | 0.00 | 0.00 | 70 | 1010.8 |
| 20260905121521 | 53 | 268 | 6.0 | 10.0 | 0.00 | 0.00 | 0.00 | 69 | 1010.8 |
| 20260905120528 | 53 | 293 | 6.0 | 13.0 | 0.00 | 0.00 | 0.00 | 70 | 1010.8 |
| 20260905115534 | 53 | 283 | 6.0 | 12.0 | 0.00 | 0.00 | 0.00 | 68 | 1010.6 |
| 20260905114518 | 53 | 288 | 4.0 | 12.0 | 0.00 | 0.00 | 0.00 | 68 | 1010.8 |
| 20260905113531 | 54 | 279 | 6.0 | 10.0 | 0.00 | 0.00 | 0.00 | 66 | 1010.9 |
| 20260905112531 | 54 | 276 | 8.0 | 14.0 | 0.00 | 0.00 | 0.00 | 64 | 1011.0 |
| 20260905111517 | 54 | 266 | 7.0 | 17.0 | 0.00 | 0.00 | 0.00 | 66 | 1011.2 |
| 20260905110523 | 54 | 267 | 7.0 | 11.0 | 0.00 | 0.00 | 0.00 | 66 | 1011.3 |
| 20260905105530 | 55 | 263 | 10.0 | 19.0 | 0.00 | 0.00 | 0.00 | 64 | 1011.1 |
| 20260905104517 | 55 | 278 | 8.0 | 22.0 | 0.00 | 0.00 | 0.00 | 65 | 1011.1 |
| 20260905103530 | 55 | 250 | 7.0 | 13.0 | 0.00 | 0.00 | 0.00 | 65 | 1011.1 |
| 20260905102529 | 55 | 260 | 7.0 | 17.0 | 0.00 | 0.00 | 0.00 | 65 | 1010.8 |
| 20260905101534 | 56 | 260 | 7.0 | 22.0 | 0.00 | 0.00 | 0.00 | 66 | 1010.7 |
| 20260905100522 | 56 | 241 | 9.0 | 18.0 | 0.00 | 0.00 | 0.00 | 68 | 1010.5 |
| 20260905095528 | 56 | 264 | 7.0 | 12.0 | 0.00 | 0.00 | 0.00 | 67 | 1010.4 |
| 20260905094534 | 56 | 281 | 7.0 | 18.0 | 0.00 | 0.00 | 0.00 | 69 | 1010.2 |
| 20260905093521 | 57 | 265 | 12.0 | 22.0 | 0.00 | 0.00 | 0.00 | 67 | 1009.9 |
| 20260905092534 | 56 | 271 | 7.0 | 17.0 | 0.00 | 0.00 | 0.00 | 69 | 1009.9 |
| 20260905091534 | 56 | 287 | 8.0 | 16.0 | 0.00 | 0.00 | 0.00 | 73 | 1009.8 |
| 20260905090518 | 56 | 267 | 8.0 | 17.0 | 0.00 | 0.00 | 0.00 | 74 | 1009.6 |
| 20260905085524 | 56 | 285 | 8.0 | 23.0 | 0.00 | 0.00 | 0.00 | 75 | 1009.4 |
| 20260905084544 | 56 | 292 | 9.0 | 15.0 | 0.00 | 0.00 | 0.00 | 76 | 1009.4 |
| 20260905083517 | 56 | 280 | 10.0 | 19.0 | 0.00 | 0.00 | 0.00 | 77 | 1009.3 |
| 20260905082530 | 56 | 275 | 8.0 | 17.0 | 0.00 | 0.00 | 0.00 | 78 | 1009.2 |
| 20260905081530 | 56 | 303 | 9.0 | 18.0 | 0.00 | 0.00 | 0.00 | 78 | 1009.2 |
| 20260905080517 | 55 | 302 | 10.0 | 19.0 | 0.00 | 0.00 | 0.00 | 78 | 1008.9 |
| 20260905075529 | 55 | 305 | 9.0 | 16.0 | 0.00 | 0.00 | 0.00 | 78 | 1009.3 |
| 20260905074529 | 55 | 297 | 8.0 | 16.0 | 0.00 | 0.00 | 0.00 | 78 | 1009.1 |
| 20260905073516 | 55 | 304 | 8.0 | 14.0 | 0.00 | 0.00 | 0.00 | 80 | 1008.9 |
| 20260905072522 | 55 | 302 | 8.0 | 20.0 | 0.00 | 0.00 | 0.00 | 82 | 1009.2 |
| 20260905071529 | 55 | 304 | 8.0 | 17.0 | 0.00 | 0.00 | 0.00 | 87 | 1009.1 |
| 20260905070550 | 55 | 283 | 8.0 | 15.0 | 0.00 | 0.00 | 0.00 | 91 | 1009.1 |
| 20260905065520 | 54 | 312 | 8.0 | 18.0 | 0.00 | 0.00 | 0.00 | 95 | 1008.8 |
| 20260905064525 | 54 | 321 | 6.0 | 14.0 | 0.00 | 0.00 | 0.00 | 94 | 1008.7 |
| 20260905063532 | 54 | 316 | 8.0 | 15.0 | 0.00 | 0.00 | 0.00 | 93 | 1008.7 |
| 20260905062517 | 55 | 322 | 7.0 | 20.0 | 0.00 | 0.00 | 0.00 | 91 | 1008.6 |
| 20260905061524 | 55 | 325 | 8.0 | 15.0 | 0.00 | 0.00 | 0.00 | 91 | 1008.7 |
| 20260905060532 | 55 | 331 | 7.0 | 15.0 | 0.00 | 0.00 | 0.00 | 92 | 1008.7 |
| 20260905055518 | 55 | 336 | 6.0 | 13.0 | 0.00 | 0.00 | 0.00 | 91 | 1008.7 |
| 20260905054524 | 54 | 342 | 6.0 | 12.0 | 0.00 | 0.00 | 0.00 | 92 | 1008.7 |
| 20260905053530 | 54 | 345 | 4.0 | 11.0 | 0.00 | 0.00 | 0.00 | 93 | 1008.9 |
| 20260905052537 | 54 | 335 | 3.0 | 11.0 | 0.00 | 0.00 | 0.00 | 94 | 1009.2 |
| 20260905051524 | 53 | 352 | 4.0 | 9.0 | 0.00 | 0.00 | 0.00 | 94 | 1009.3 |
| 20260905050529 | 53 | 351 | 3.0 | 9.0 | 0.00 | 0.00 | 0.00 | 94 | 1009.7 |
| 20260905045516 | 53 | 350 | 4.0 | 10.0 | 0.00 | 0.00 | 0.00 | 94 | 1010.2 |
| 20260905044522 | 53 | 354 | 4.0 | 9.0 | 0.00 | 0.00 | 0.00 | 93 | 1010.1 |
| 20260905043536 | 53 | 338 | 5.0 | 10.0 | 0.00 | 0.00 | 0.00 | 91 | 1010.5 |
| 20260905042534 | 54 | 322 | 7.0 | 17.0 | 0.00 | 0.00 | 0.00 | 91 | 1011.0 |
| 20260905041521 | 54 | 325 | 6.0 | 13.0 | 0.00 | 0.00 | 0.00 | 90 | 1011.4 |
| 20260905040535 | 54 | 294 | 6.0 | 11.0 | 0.00 | 0.00 | 0.00 | 89 | 1011.5 |
| 20260905035543 | 55 | 314 | 7.0 | 15.0 | 0.00 | 0.00 | 0.00 | 86 | 1011.8 |
| 20260905034522 | 55 | 289 | 6.0 | 16.0 | 0.00 | 0.00 | 0.00 | 87 | 1011.8 |
| 20260905033530 | 55 | 277 | 7.0 | 14.0 | 0.00 | 0.00 | 0.00 | 86 | 1011.9 |
| 20260905032534 | 56 | 284 | 8.0 | 19.0 | 0.00 | 0.00 | 0.00 | 84 | 1011.6 |
| 20260905031520 | 57 | 301 | 9.0 | 17.0 | 0.00 | 0.00 | 0.00 | 80 | 1012.0 |
| 20260905030542 | 58 | 312 | 6.0 | 15.0 | 0.00 | 0.00 | 0.00 | 77 | 1011.4 |
| 20260905025540 | 58 | 314 | 9.0 | 16.0 | 0.00 | 0.00 | 0.00 | 79 | 1011.4 |
| 20260905024519 | 58 | 297 | 9.0 | 18.0 | 0.00 | 0.00 | 0.00 | 78 | 1011.6 |
| 20260905023525 | 58 | 286 | 7.0 | 14.0 | 0.00 | 0.00 | 0.00 | 76 | 1011.6 |
| 20260905022520 | 58 | 290 | 6.0 | 10.0 | 0.00 | 0.00 | 0.00 | 83 | 1011.3 |
| 20260905021526 | 58 | 325 | 6.0 | 12.0 | 0.00 | 0.00 | 0.00 | 83 | 1011.3 |